Temperature
24 22 21 20 20 19 19 19 18 18 18 18 18 18 18 18 18 18 18 18 18 18 18 18 18 18 18 18 18 18 18 18 18 18 18 18 18 18 18 18 18 17 17
24 22 21 20 20 19 19 18 18 18 18 18 18 18 18 18 18 19 18 18 18 18 18 18 18 18 18 18 18 18 18 18 18 18 18 18 18 18 18 18 18 18 17
24 22 21 20 20 19 19 18 18 18 18 18 18 18 18 18 18 18 18 18 18 18 18 18 18 18 18 18 18 18 18 18 18 18 18 18 18 18 18 18 18 18 18
24 22 21 20 20 19 19 19 18 18 18 18 18 18 18 18 18 18 18 18 18 18 18 18 18 18 18 18 18 18 18 18 18 18 18 18 18 18 18 18 18 18 18
24 23 22 21 20 20 19 19 18 18 18 18 18 18 18 18 18 18 18 18 18 18 18 18 18 18 18 18 18 18 18 18 18 18 18 19 18 19 19 18 18 18 18
25 23 22 21 20 20 19 19 18 18 18 18 18 18 18 18 18 18 18 18 18 18 18 18 18 18 18 18 18 18 18 18 18 18 18 18 19 19 19 19 19 18 18
25 23 22 21 20 20 19 18 18 18 18 18 18 18 18 18 18 18 18 18 18 18 18 18 18 18 18 18 18 18 17 18 18 18 18 18 19 19 19 19 19 18 18
25 24 22 21 20 20 19 18 18 18 18 18 18 18 18 18 18 18 18 18 18 18 18 18 17 17 18 17 17 17 17 17 17 17 18 18 18 18 19 19 19 18 18
25 24 22 21 20 20 19 19 18 18 18 18 18 18 18 18 18 18 18 18 18 18 18 18 17 17 17 17 17 17 17 17 17 17 17 18 18 18 18 18 18 18 18
25 24 23 21 20 20 19 19 18 18 18 18 18 18 18 18 18 18 18 18 18 18 17 17 17 17 17 17 17 17 17 17 17 17 17 17 17 18 18 18 18 18 18
26 24 23 22 21 20 19 19 18 18 18 18 18 18 18 18 18 17 17 17 17 17 17 17 17 17 17 17 17 17 16 16 16 16 16 17 17 17 17 17 17 17 17
26 24 23 22 21 20 20 19 18 18 18 18 18 17 18 18 17 17 17 17 17 17 17 17 17 16 16 16 16 16 16 16 16 16 16 16 16 16 16 16 16 16 16
25 24 23 22 21 21 20 19 18 18 18 18 17 17 17 17 17 17 17 17 17 17 17 17 16 16 16 16 16 16 16 16 16 16 16 16 16 16 16 16 16 16 15
25 24 23 22 21 20 20 19 18 18 18 18 17 17 17 17 17 17 17 17 17 16 16 16 16 16 16 16 16 16 15 15 15 15 15 15 15 15 15 15 15 15 15
24 23 22 21 21 20 19 19 18 18 18 17 17 17 17 17 17 16 16 16 16 16 16 16 16 16 15 15 15 15 15 15 15 15 15 15 15 14 14 14 14 14 14
24 23 22 21 20 19 19 19 18 18 18 17 17 17 17 17 16 16 16 16 16 16 15 15 15 15 15 15 15 15 15 15 14 14 14 14 14 14 14 13 13 13 13
24 22 21 20 20 19 18 18 18 18 17 17 17 17 16 16 16 16 16 15 15 15 15 15 15 15 15 15 15 15 15 14 14 13 13 13 13 13 13 12 12 12 12
23 22 21 20 19 19 18 18 18 17 17 17 16 16 16 16 16 15 15 15 15 15 15 15 14 14 14 14 14 14 14 13 13 13 12 12 12 11 11 11 11 11 11
22 21 20 20 19 18 18 18 17 17 17 16 16 16 16 15 15 15 15 15 15 14 14 14 14 14 13 13 13 13 13 13 12 12 11 11 11 11 10 10 10 10 9
21 20 20 19 18 18 17 17 17 17 16 16 16 16 15 15 15 15 15 14 14 14 14 13 13 13 13 13 12 12 12 12 11 11 11 10 10 10 10 9 9 9 8
20 19 19 18 18 17 17 17 16 16 16 16 15 15 15 15 14 14 14 14 14 13 13 13 12 12 12 12 12 11 11 11 11 10 10 10 9 9 9 9 8 8 8
19 18 18 17 17 17 17 16 16 16 16 15 15 15 15 14 14 14 13 13 13 13 12 12 12 11 11 11 11 10 10 10 10 10 9 9 8 8 8 8 8 7 7
18 17 17 16 16 16 16 16 15 15 15 15 15 14 14 13 13 13 13 13 12 12 12 11 11 11 10 10 10 9 9 9 9 9 8 8 7 7 7 7 7 7 6
17 16 16 15 15 15 15 15 15 15 14 14 14 13 13 13 12 12 12 12 12 12 11 11 10 10 10 9 9 8 8 8 8 8 7 7 7 6 6 6 6 6 6
15 15 15 15 14 14 14 14 14 14 14 13 13 13 12 12 12 12 12 11 11 11 11 11 10 10 9 9 8 8 8 8 7 7 7 6 6 6 6 6 5 5 5
14 14 14 13 13 13 13 13 13 13 13 13 12 12 12 11 11 11 11 10 10 10 10 10 10 9 9 8 8 7 7 7 7 7 6 6 6 6 6 6 6 5 5
Wind_Speed
12 12 13 12 12 12 11 11 11 10 9 7 7 6 5 4 4 5 8 9 8 9 5 2 4 2 2 3 4 3 3 2 2 1 1 2 4 5 5 4 4 7 10
13 13 12 12 12 12 11 11 10 11 10 8 6 5 5 4 4 4 6 9 8 8 8 4 4 4 3 3 3 3 1 3 3 2 1 0 1 2 5 5 5 5 7
14 14 13 12 12 12 12 11 10 10 10 9 6 5 4 3 3 4 5 6 8 8 5 6 3 4 4 4 4 4 3 2 2 2 2 1 2 2 2 4 4 4 4
12 13 12 11 12 12 11 10 10 10 10 9 9 10 8 7 7 5 5 5 6 7 6 6 4 3 3 5 6 6 3 3 2 2 2 2 2 2 1 2 3 6 5
13 13 12 12 11 11 11 10 10 10 10 10 10 10 8 7 6 5 6 6 5 6 7 6 5 4 3 5 3 3 3 2 3 2 2 2 2 3 3 2 2 2 4
13 12 11 11 9 10 10 10 10 10 10 10 9 9 9 7 7 7 7 7 6 6 7 7 5 5 4 4 4 3 4 2 1 1 1 2 2 2 2 3 3 3 3
12 12 11 11 10 10 9 10 11 10 10 10 9 9 7 7 8 7 7 7 6 6 7 7 6 5 4 4 4 4 3 4 3 2 2 2 1 1 0 2 2 2 2
11 11 11 10 9 9 9 10 10 10 10 10 9 8 7 6 6 7 7 7 5 5 7 7 6 5 5 6 4 4 4 3 3 4 2 2 2 1 1 1 1 1 1
10 11 11 10 9 9 9 9 9 9 10 9 8 8 8 7 6 7 6 5 5 6 7 8 8 6 6 4 5 3 4 4 4 3 3 2 2 1 1 1 1 1 1
11 12 12 11 10 9 9 9 9 8 8 8 8 8 7 6 6 6 7 7 6 6 7 7 8 7 6 5 4 3 3 4 3 2 2 1 2 2 2 2 2 2 1
12 12 11 11 10 9 9 9 9 8 7 7 7 6 6 6 5 5 5 5 5 6 6 6 6 6 5 5 4 3 4 4 3 2 2 3 3 4 4 3 4 4 3
12 12 11 11 9 9 9 8 8 8 7 7 7 6 6 5 5 5 4 4 5 6 6 5 5 5 5 5 5 4 4 4 3 2 3 3 2 4 4 4 4 3 3
11 11 11 9 9 8 8 8 7 7 7 7 7 6 6 5 4 4 4 4 5 5 5 5 5 5 5 5 5 4 5 5 4 5 5 4 5 5 5 5 5 4 4
10 10 9 8 7 7 7 6 7 7 6 6 6 6 5 5 4 4 4 5 5 5 5 5 5 5 4 5 6 6 7 7 7 8 8 7 7 6 5 5 5 5 4
11 10 9 8 7 7 6 6 5 5 5 5 5 5 5 4 4 4 5 5 5 6 5 5 5 4 4 5 8 9 9 9 10 10 11 11 14 15 10 7 6 6 5
11 10 10 9 8 7 6 6 5 5 5 5 5 5 5 5 5 5 5 5 5 5 6 6 6 5 5 9 12 11 10 10 10 10 10 10 12 15 17 17 16 12 8
11 10 9 8 7 7 6 5 5 5 5 5 5 6 6 5 5 6 6 6 6 7 8 7 8 8 8 13 14 14 11 10 9 8 7 8 9 9 9 12 14 15 16
10 9 8 9 8 7 7 5 5 5 5 5 6 6 6 6 6 6 6 6 6 7 7 8 8 9 10 14 16 16 12 10 9 8 8 8 7 6 6 9 9 9 9
9 8 7 8 7 7 6 6 5 5 5 5 6 6 6 6 6 6 6 6 7 7 8 9 9 10 10 12 13 13 10 10 10 9 9 8 8 8 8 8 9 8 6
8 8 7 7 6 5 6 6 5 5 5 5 6 6 6 7 7 7 7 7 8 8 9 9 9 10 9 10 12 11 10 11 10 9 9 11 10 11 9 7 7 7 4
8 7 7 6 5 4 5 5 5 4 4 5 6 7 7 6 7 7 7 8 8 9 10 10 9 9 9 10 10 10 8 9 9 8 7 6 11 12 11 9 6 4 2
7 7 6 6 5 4 4 5 4 4 5 6 7 7 7 6 7 8 8 9 9 10 10 10 10 8 8 9 10 11 10 10 9 8 7 7 11 12 10 7 5 5 3
6 5 5 5 5 4 4 5 4 5 6 7 7 8 8 7 7 8 9 8 8 8 8 9 9 8 8 9 14 15 16 14 10 9 12 10 9 7 6 5 5 4 2
5 4 5 5 5 4 4 4 4 5 7 8 8 8 9 9 8 6 6 7 7 8 8 9 9 9 8 8 8 9 11 14 12 10 10 9 6 3 2 2 0 1 3
4 5 5 5 4 4 4 4 5 6 7 8 8 9 9 9 9 9 8 7 5 5 8 8 9 10 9 7 9 8 7 8 8 8 6 4 4 3 3 3 3 3 3
5 5 5 4 4 4 4 3 4 5 7 8 8 8 8 8 10 11 11 18 14 16 15 14 12 9 11 14 14 13 12 11 9 6 5 4 4 4 4 4 3 3 4
Wind_Direction
163 156 158 165 165 167 172 175 179 173 169 171 174 183 194 192 183 168 159 167 180 164 185 173 153 200 163 156 151 149 156 189 183 168 184 209 191 180 179 196 183 180 184
153 156 163 168 171 174 177 178 181 176 175 170 173 183 180 191 192 173 158 172 176 168 182 178 178 172 150 158 153 138 159 202 184 178 158 230 257 216 198 182 188 186 177
158 161 169 173 174 178 181 184 183 180 180 171 171 178 178 193 191 176 165 172 175 183 188 167 195 165 173 163 180 170 184 207 207 193 166 176 190 212 221 194 182 173 178
155 161 168 176 178 179 179 182 180 177 178 176 180 181 187 192 191 184 166 173 180 183 178 177 180 177 177 159 193 186 187 200 219 209 211 201 149 164 195 236 184 178 181
158 161 167 173 178 176 176 179 178 178 178 183 185 189 192 192 186 179 164 174 183 191 184 180 176 182 189 170 186 152 187 213 220 214 204 212 194 206 183 195 198 189 184
154 156 161 163 168 169 172 172 174 178 178 186 188 197 197 190 182 178 178 185 183 196 191 181 178 188 194 166 171 170 194 216 255 293 282 238 216 219 188 170 182 185 195
151 152 157 163 167 169 168 169 172 178 180 186 190 198 198 191 188 187 192 198 189 191 189 186 177 191 180 167 171 173 202 198 202 240 274 285 270 303 111 145 174 153 168
151 154 156 159 164 167 168 168 171 174 178 184 187 191 192 196 196 199 197 204 202 190 174 173 178 192 184 185 175 184 196 188 192 219 241 305 319 348 11 75 124 151 176
149 152 150 156 163 165 162 163 165 169 176 182 182 186 193 201 201 195 200 199 193 185 179 177 180 188 186 180 169 200 191 163 186 211 201 249 289 307 12 24 87 140 179
153 151 151 157 161 158 157 158 162 169 177 180 181 186 191 195 200 199 201 196 193 190 180 179 176 179 173 174 177 192 172 169 180 183 157 138 335 5 29 17 37 57 85
155 148 146 147 152 154 157 159 159 166 173 176 180 180 182 188 194 200 200 191 182 179 177 175 171 168 167 170 171 185 165 168 169 192 134 106 43 30 25 31 41 42 57
143 143 144 148 155 156 156 157 162 168 172 171 167 174 177 175 184 189 190 181 177 176 168 163 165 170 168 166 163 180 154 137 134 122 101 98 94 70 37 35 45 47 58
140 141 143 149 153 152 153 157 163 165 168 166 166 169 173 175 182 182 181 174 167 165 166 165 165 167 164 158 154 151 125 120 115 105 94 84 80 70 57 46 38 30 51
140 142 143 141 140 140 143 152 160 161 163 160 164 163 167 166 167 167 166 162 160 158 159 155 154 156 157 147 139 128 111 102 90 86 82 73 71 66 60 61 47 42 43
149 149 148 139 138 138 143 145 148 148 150 151 156 150 145 142 142 139 143 144 149 153 146 138 131 135 147 146 131 123 119 109 98 88 82 77 77 70 65 67 55 52 52
153 151 146 144 145 146 150 145 144 145 143 147 147 141 138 137 139 140 138 134 132 128 122 118 118 117 128 123 123 123 116 113 110 105 97 91 84 83 79 75 68 62 64
149 146 146 148 147 148 146 144 143 144 146 148 149 145 138 135 134 135 128 125 124 119 114 113 112 110 106 108 110 113 114 110 109 109 107 101 97 93 94 86 77 65 60
142 141 145 145 144 146 144 140 142 148 152 151 149 148 143 138 132 127 126 125 123 119 118 115 114 110 108 108 108 107 106 103 99 97 97 97 88 83 96 98 87 74 59
129 132 135 134 134 138 139 142 146 150 154 152 145 145 143 139 134 130 130 129 127 124 121 120 120 116 110 110 114 113 108 103 93 86 83 91 85 66 89 104 103 99 90
115 121 121 117 117 121 135 142 146 145 146 143 138 132 133 135 133 129 123 119 122 121 118 113 111 114 114 112 115 115 116 111 106 95 81 75 79 68 73 91 95 93 83
109 110 112 112 110 114 126 134 132 139 138 132 132 128 128 129 127 121 117 118 117 115 111 107 101 99 98 97 102 114 118 122 118 110 98 81 78 73 69 76 82 84 68
113 111 108 105 98 102 120 130 131 128 123 124 124 122 120 123 126 123 120 119 119 118 116 111 103 91 85 85 87 92 102 113 114 111 107 98 84 76 71 71 52 31 6
111 107 107 101 92 88 107 125 125 128 126 124 124 121 118 112 115 121 125 124 123 123 124 120 115 109 99 85 83 87 91 93 99 105 111 112 103 93 84 78 44 19 26
108 104 103 99 91 82 93 106 124 123 121 123 123 121 118 112 105 105 111 116 125 130 129 128 127 123 117 113 109 103 100 99 104 111 114 113 105 79 72 114 82 68 50
92 94 95 92 87 83 87 99 118 122 124 122 123 120 118 117 102 85 70 88 84 119 134 135 135 134 129 123 122 128 121 121 119 129 136 146 152 160 156 126 98 87 76
93 91 94 99 96 93 89 94 115 127 130 128 127 127 125 119 114 104 83 60 68 73 81 93 106 102 112 118 108 103 106 112 127 137 149 150 147 137 129 126 120 100 76
Height
1494 1497 1499 1502 1505 1508 1510 1513 1516 1519 1522 1526 1529 1533 1537 1540 1544 1547 1549 1551 1554 1556 1558 1560 1561 1564 1565 1567 1568 1569 1571 1572 1574 1575 1576 1577 1578 1579 1580 1581 1582 1583 1584
1492 1495 1498 1501 1504 1506 1509 1511 1514 1517 1520 1524 1527 1532 1536 1539 1542 1545 1547 1550 1552 1555 1557 1559 1560 1562 1564 1566 1567 1568 1570 1571 1573 1574 1575 1576 1578 1578 1579 1580 1581 1582 1583
1490 1494 1497 1500 1502 1504 1506 1509 1511 1515 1518 1522 1525 1529 1533 1536 1540 1543 1545 1548 1550 1553 1556 1557 1559 1561 1563 1564 1565 1567 1569 1570 1572 1573 1574 1575 1575 1576 1578 1578 1579 1580 1582
1488 1492 1496 1498 1500 1503 1505 1508 1510 1512 1516 1519 1522 1526 1529 1532 1536 1540 1542 1545 1548 1551 1553 1555 1557 1559 1561 1562 1564 1565 1567 1569 1570 1572 1573 1574 1574 1575 1576 1578 1578 1579 1580
1486 1490 1494 1496 1499 1502 1503 1505 1507 1510 1513 1516 1520 1524 1527 1531 1534 1537 1540 1543 1545 1548 1551 1553 1555 1557 1559 1560 1562 1564 1566 1567 1569 1570 1571 1572 1573 1574 1575 1576 1577 1578 1579
1484 1489 1492 1495 1498 1500 1502 1503 1505 1508 1511 1514 1518 1521 1525 1528 1532 1534 1537 1540 1543 1545 1548 1550 1552 1555 1557 1558 1560 1562 1564 1565 1567 1568 1569 1571 1572 1573 1574 1574 1575 1577 1578
1482 1487 1491 1493 1496 1498 1500 1502 1503 1506 1509 1512 1515 1519 1523 1526 1529 1532 1534 1537 1540 1542 1545 1547 1549 1552 1554 1556 1558 1559 1562 1563 1565 1566 1568 1569 1570 1571 1572 1573 1574 1575 1576
1481 1485 1489 1492 1495 1497 1499 1500 1502 1504 1507 1510 1513 1517 1520 1523 1526 1529 1531 1534 1537 1539 1542 1544 1546 1549 1551 1554 1556 1558 1559 1561 1562 1564 1566 1567 1568 1570 1571 1572 1573 1574 1575
1479 1484 1488 1492 1494 1497 1498 1499 1501 1503 1506 1509 1512 1515 1518 1521 1523 1526 1529 1531 1534 1536 1539 1541 1543 1546 1548 1551 1553 1555 1557 1559 1560 1562 1564 1565 1567 1568 1569 1570 1572 1573 1573
1479 1484 1487 1490 1493 1496 1498 1499 1500 1502 1505 1508 1510 1513 1515 1518 1521 1523 1526 1528 1531 1533 1536 1538 1541 1543 1546 1548 1551 1553 1554 1556 1558 1560 1562 1563 1565 1566 1567 1569 1570 1570 1571
1477 1482 1487 1490 1493 1495 1498 1499 1501 1503 1505 1507 1509 1511 1514 1516 1518 1520 1522 1525 1527 1530 1533 1535 1538 1540 1543 1545 1548 1550 1552 1554 1556 1558 1559 1561 1562 1563 1565 1566 1567 1569 1569
1476 1481 1486 1489 1493 1495 1497 1499 1501 1503 1504 1506 1508 1510 1512 1514 1516 1518 1520 1522 1524 1527 1529 1532 1535 1538 1540 1543 1545 1547 1549 1551 1553 1555 1557 1558 1560 1562 1563 1564 1565 1567 1567
1477 1481 1485 1489 1492 1495 1497 1499 1501 1503 1504 1506 1507 1509 1511 1512 1514 1516 1518 1520 1522 1524 1527 1529 1532 1535 1538 1540 1543 1545 1547 1549 1551 1553 1555 1556 1558 1560 1561 1562 1563 1564 1566
1477 1481 1485 1488 1491 1494 1496 1499 1501 1502 1504 1505 1507 1508 1510 1511 1513 1514 1516 1518 1520 1522 1524 1527 1529 1532 1535 1538 1540 1543 1545 1547 1549 1551 1553 1554 1556 1558 1559 1560 1561 1563 1564
1478 1481 1485 1487 1491 1493 1496 1498 1500 1501 1503 1505 1506 1507 1509 1510 1511 1513 1514 1516 1518 1520 1522 1525 1528 1530 1533 1536 1538 1541 1543 1545 1547 1549 1551 1552 1554 1556 1557 1559 1560 1561 1562
1476 1481 1484 1487 1490 1493 1495 1497 1499 1500 1502 1503 1505 1506 1508 1509 1510 1512 1513 1515 1517 1519 1521 1523 1526 1528 1531 1534 1536 1539 1541 1543 1545 1547 1549 1551 1552 1554 1555 1557 1558 1559 1560
1476 1480 1484 1487 1489 1492 1494 1496 1497 1499 1500 1502 1503 1505 1506 1508 1509 1511 1512 1514 1516 1518 1520 1522 1525 1527 1530 1532 1535 1537 1539 1541 1544 1546 1548 1549 1551 1553 1554 1555 1556 1557 1558
1476 1480 1483 1486 1489 1491 1493 1495 1496 1498 1499 1501 1502 1503 1505 1507 1508 1509 1511 1513 1515 1517 1519 1521 1523 1526 1528 1531 1533 1535 1538 1540 1543 1545 1547 1548 1550 1551 1552 1553 1555 1556 1557
1475 1479 1482 1485 1488 1490 1492 1493 1495 1497 1498 1499 1500 1502 1503 1505 1506 1508 1509 1511 1513 1515 1517 1520 1522 1524 1527 1530 1532 1535 1537 1539 1541 1544 1546 1547 1549 1550 1552 1553 1554 1555 1556
1476 1479 1482 1484 1486 1488 1490 1492 1493 1495 1496 1498 1499 1500 1502 1504 1505 1506 1508 1510 1512 1514 1516 1518 1521 1524 1526 1529 1531 1534 1536 1538 1540 1543 1545 1547 1548 1550 1551 1552 1553 1555 1556
1477 1479 1482 1484 1485 1487 1489 1490 1492 1493 1495 1496 1497 1498 1500 1502 1504 1505 1507 1509 1511 1513 1515 1517 1520 1523 1526 1529 1531 1533 1535 1537 1539 1541 1543 1545 1548 1549 1550 1552 1553 1554 1556
1478 1480 1481 1483 1484 1486 1487 1488 1490 1492 1493 1495 1496 1497 1499 1501 1503 1504 1506 1509 1511 1513 1515 1517 1520 1523 1525 1528 1531 1533 1535 1537 1539 1541 1543 1545 1547 1549 1550 1552 1553 1554 1556
1479 1480 1481 1482 1483 1484 1485 1486 1488 1489 1491 1492 1494 1496 1498 1500 1501 1503 1506 1508 1511 1513 1515 1517 1519 1522 1525 1528 1531 1533 1536 1538 1539 1541 1543 1545 1547 1549 1550 1552 1553 1554 1555
1478 1479 1480 1481 1482 1483 1483 1485 1486 1487 1489 1490 1493 1495 1497 1499 1501 1504 1506 1508 1510 1512 1514 1517 1519 1522 1525 1527 1530 1533 1535 1538 1540 1542 1543 1545 1547 1549 1551 1552 1554 1555 1556
1477 1478 1479 1480 1480 1481 1482 1483 1484 1485 1487 1489 1491 1494 1496 1498 1500 1503 1505 1508 1510 1513 1515 1517 1519 1521 1523 1527 1530 1533 1536 1538 1540 1543 1545 1547 1549 1551 1552 1554 1555 1556 1557
1476 1477 1478 1478 1479 1480 1480 1481 1482 1484 1485 1487 1489 1492 1495 1497 1499 1502 1504 1508 1511 1513 1515 1517 1520 1522 1525 1528 1531 1534 1537 1540 1542 1544 1546 1549 1551 1553 1554 1556 1557 1557 1558